This is the latest recevied weather packets stored in our database for station/object AI5BL. If no packets are shown the sender has not sent any weather packets the latest 10 day(s).
| Time | Temp. | Humidity | Pressure | Rain* | Wind** | Luminosity | Snow |
|---|---|---|---|---|---|---|---|
| 1777764993 | 19.44° C | 46% | 1018.5 hPa | 0 mm | - | 23 W/m² | - |
| 1777764690 | 19.44° C | 46% | 1018.4 hPa | 0 mm | - | 28 W/m² | - |
| 1777764385 | 19.44° C | 48% | 1018.3 hPa | 0 mm | - | 25 W/m² | - |
| 1777764083 | 19.44° C | 47% | 1018.4 hPa | 0 mm | - | 26 W/m² | - |
| 1777763780 | 20° C | 47% | 1018.4 hPa | 0 mm | - | 27 W/m² | - |
| 1777761660 | 20° C | 46% | 1018 hPa | 0 mm | - | 31 W/m² | - |
| 1777761357 | 20° C | 46% | 1017.9 hPa | 0 mm | - | 32 W/m² | - |
| 1777761056 | 20° C | 44% | 1017.8 hPa | 0 mm | - | 32 W/m² | - |
| 1777760753 | 20° C | 40% | 1018 hPa | 0 mm | - | 44 W/m² | - |
| 1777760449 | 20° C | 43% | 1017.7 hPa | 0 mm | - | 47 W/m² | - |
| 1777760144 | 20.56° C | 41% | 1017.9 hPa | 0 mm | - | 50 W/m² | - |
| 1777759842 | 20.56° C | 41% | 1018 hPa | 0 mm | - | 144 W/m² | - |
| 1777759538 | 20.56° C | 41% | 1018 hPa | 0 mm | - | 90 W/m² | - |
| 1777759234 | 20.56° C | 38% | 1018 hPa | 0 mm | - | 49 W/m² | - |
| 1777758932 | 20.56° C | 39% | 1017.8 hPa | 0 mm | - | 41 W/m² | - |
| 1777758629 | 20.56° C | 41% | 1017.8 hPa | 0 mm | - | 43 W/m² | - |
| 1777758326 | 20.56° C | 42% | 1017.8 hPa | 0 mm | - | 43 W/m² | - |
| 1777757719 | 20.56° C | 42% | 1017.9 hPa | 0 mm | - | 372 W/m² | - |
| 1777757418 | 21.11° C | 41% | 1017.7 hPa | 0 mm | - | 135 W/m² | - |
| 1777757116 | 20.56° C | 42% | 1017.8 hPa | 0 mm | - | 45 W/m² | - |
| 1777756814 | 20.56° C | 39% | 1017.6 hPa | 0 mm | - | 52 W/m² | - |
| 1777756509 | 20.56° C | 43% | 1017.8 hPa | 0 mm | - | 205 W/m² | - |
| 1777756207 | 20.56° C | 42% | 1017.9 hPa | 0 mm | - | 100 W/m² | - |
| 1777755903 | 21.11° C | 42% | 1017.9 hPa | 0 mm | - | 127 W/m² | - |
| 1777753782 | 21.11° C | 41% | 1018.3 hPa | 0 mm | - | 56 W/m² | - |
* Rain latest hour (hover to see other rain measurements)
** Current wind speed in m/s (hover to see current wind gust speed)